Location: Worth Mountain WMA
(34.9569°N, 81.4819°W)
Time: 05:07:16
(UTC-05:00)

Amateur Radio Satellites - All Passes

Search period start: 23 January 2018 04:37
Search period end: 24 January 2018 04:37
Location: Worth Mountain WMA, 34.9569°N, 81.4819°W

Satellite Date Start Highest point End Downlink Frequencies (MHz)
Time Altitude Azimuth
CUBESAT XI-V 23 Jan 04:44:33 04:48:19 24° 264° (W) 04:52:06 437.345
DOVE 4 23 Jan 05:05:22 05:09:49 69° 102° (ESE) 05:14:31 437.250
AO-7 23 Jan 05:11:39 05:19:13 40° 297° (WNW) 05:26:45 .
M-CUBED/EXP-1 PRIME 23 Jan 05:14:43 05:17:52 45° 104° (ESE) 05:20:59 437.505
FALCONSAT 3 23 Jan 05:16:21 05:20:02 81° 359° (N) 05:23:43 435.103
SO-50 23 Jan 05:31:54 05:36:05 40° 304° (NW) 05:40:20 436.795
XW-2C 23 Jan 05:36:04 05:38:20 15° 94° (E) 05:40:37 145.795 - 145.815
LilacSat-2 23 Jan 05:36:49 05:39:23 17° 95° (E) 05:41:57 437.200
KKS-1 23 Jan 05:45:40 05:49:39 33° 262° (W) 05:53:40 437.445
STARS 23 Jan 05:53:56 05:58:17 76° 258° (WSW) 06:02:38 437.465
KAITUO 1B 23 Jan 06:03:08 06:06:07 23° 96° (E) 06:09:06 145.475/437.950
XW-2F 23 Jan 06:08:53 06:12:23 38° 99° (E) 06:15:51 145.980 - 146.000
NUDT-PHONESAT 23 Jan 06:09:21 06:12:28 26° 97° (E) 06:15:33 437.300
CUTE-I 23 Jan 06:13:42 06:18:39 38° 99° (E) 06:23:35 437.470
XW-2D 23 Jan 06:20:38 06:24:21 67° 100° (E) 06:28:04 145.860 - 145.880
HO-68 23 Jan 06:28:05 06:34:04 28° 96° (E) 06:40:01 435.675
RS-15 23 Jan 06:34:17 06:44:33 33° 104° (ESE) 06:54:45 29.354- 29.394
XW-2B 23 Jan 06:38:21 06:42:05 72° 282° (WNW) 06:45:47 145.730 - 145.750
SEEDS 23 Jan 06:46:23 06:49:13 18° 94° (E) 06:52:02 437.485
FALCONSAT 3 23 Jan 06:55:27 06:59:06 67° 195° (SSW) 07:02:44 435.103
CUTE 1.7 + AOD 2 23 Jan 07:02:57 07:07:03 51° 99° (E) 07:11:07 437.475
STRAND 1 23 Jan 07:03:29 07:08:32 74° 75° (ENE) 07:13:38 437.568
XW-2C 23 Jan 07:09:20 07:12:30 26° 288° (WNW) 07:15:39 145.795 - 145.815
LilacSat-2 23 Jan 07:10:32 07:13:35 24° 288° (WNW) 07:16:38 437.200
XW-2A 23 Jan 07:24:47 07:26:19 13° 94° (E) 07:27:50 145.665 - 145.685
FO-29 23 Jan 07:33:37 07:40:25 65° 75° (ENE) 07:46:27 435.910
KAITUO 1B 23 Jan 07:37:25 07:39:53 17° 290° (WNW) 07:42:21 145.475/437.950
CUBEBUG 2 23 Jan 07:41:13 07:46:00 88° 286° (WNW) 07:50:42 437.445
UWE-3 23 Jan 07:41:18 07:45:50 49° 99° (E) 07:50:14 435.000/436.395/437.385
NUDT-PHONESAT 23 Jan 07:43:51 07:46:02 15° 291° (WNW) 07:48:12 437.300
XW-2F 23 Jan 07:44:58 07:46:04 11° 293° (WNW) 07:47:10 145.980 - 146.000
CUTE-I 23 Jan 07:54:19 07:58:25 23° 293° (WNW) 08:02:31 437.470
AAUSAT CUBESAT 2 23 Jan 07:54:30 07:58:28 47° 99° (E) 08:02:25 437.432
ZACube-1 23 Jan 07:59:18 08:03:32 38° 98° (E) 08:07:39 437.345
AO-73 23 Jan 08:04:27 08:08:38 37° 97° (E) 08:12:43 145.935
HO-68 23 Jan 08:15:08 08:21:55 48° 291° (WNW) 08:28:41 435.675
BEESAT 3 23 Jan 08:20:41 08:23:58 25° 112° (ESE) 08:27:16 437.485
SEEDS 23 Jan 08:21:17 08:24:52 29° 288° (WNW) 08:28:29 437.485
PCSat 23 Jan 08:28:27 08:32:46 25° 107° (ESE) 08:37:07 145.827
Oscar 11 23 Jan 08:34:38 08:38:51 50° 100° (E) 08:43:00 .
FALCONSAT 3 23 Jan 08:35:05 08:37:50 20° 208° (SSW) 08:40:36 435.103
CUTE 1.7 + AOD 2 23 Jan 08:41:07 08:42:22 11° 294° (WNW) 08:43:38 437.475
RS-15 23 Jan 08:43:56 08:56:10 68° 303° (WNW) 09:08:21 29.354- 29.394
STRAND 1 23 Jan 08:48:01 08:48:10 10° 269° (W) 08:48:18 437.568
XW-2A 23 Jan 08:56:13 08:58:59 24° 288° (WNW) 09:01:44 145.665 - 145.685
TIGRISAT 23 Jan 09:14:26 09:18:45 55° 75° (ENE) 09:23:11 435.000
BEESAT 2 23 Jan 09:15:08 09:18:26 25° 112° (ESE) 09:21:45 435.950
YUBILEINY 23 Jan 09:18:37 09:26:00 30° 73° (ENE) 09:33:19 435.215
UWE-3 23 Jan 09:19:17 09:21:46 14° 294° (WNW) 09:24:15 435.000/436.395/437.385
FO-29 23 Jan 09:21:20 09:25:39 18° 265° (W) 09:29:42 435.910
UNISAT 6 23 Jan 09:30:22 09:34:46 85° 255° (WSW) 09:39:20 437.425
AAUSAT CUBESAT 2 23 Jan 09:32:04 09:33:27 11° 293° (WNW) 09:34:48 437.432
JUGNU 23 Jan 09:32:59 09:36:14 15° 171° (S) 09:39:29 437.505
O/OREOS (USA 219) 23 Jan 09:36:06 09:39:50 25° 63° (ENE) 09:43:33 437.305
ZACube-1 23 Jan 09:36:30 09:39:26 17° 293° (WNW) 09:42:19 437.345
DELFI C3 23 Jan 09:41:06 09:44:55 50° 100° (E) 09:48:44 145.870
AO-73 23 Jan 09:41:36 09:44:30 17° 293° (WNW) 09:47:22 145.935
Max Valier Satellite 23 Jan 09:47:11 09:50:36 36° 98° (E) 09:53:59 145.860
BEESAT 3 23 Jan 09:58:13 10:01:24 23° 307° (NW) 10:04:37 437.485
EO-88 23 Jan 09:59:33 10:02:50 32° 98° (E) 10:06:04 145.990 - 145.960
PCSat 23 Jan 10:10:55 10:15:54 38° 302° (WNW) 10:20:57 145.827
Oscar 11 23 Jan 10:12:47 10:14:29 12° 294° (WNW) 10:16:10 .
PRISM 23 Jan 10:28:20 10:32:24 88° 256° (WSW) 10:36:29 437.425
AO-85 23 Jan 10:37:57 10:41:02 23° 110° (ESE) 10:44:15 145.980
BEESAT 2 23 Jan 10:52:48 10:56:03 23° 307° (NW) 10:59:19 435.950
TIGRISAT 23 Jan 10:54:41 10:55:46 11° 269° (W) 10:56:51 435.000
POLYITAN 1 23 Jan 10:56:53 11:00:13 23° 70° (ENE) 11:03:35 437.675
RS-15 23 Jan 11:02:46 11:11:30 22° 329° (NNW) 11:20:08 29.354- 29.394
NANOSAT C BR1 23 Jan 11:09:33 11:13:08 28° 71° (ENE) 11:16:45 145.865
LO-87 23 Jan 11:10:08 11:13:18 28° 97° (E) 11:16:27 145.935 - 145.965
ESTCUBE 1 23 Jan 11:13:37 11:17:22 26° 96° (E) 11:21:06 437.505/2401.250
YUBILEINY 23 Jan 11:14:43 11:23:02 52° 270° (W) 11:31:19 435.215
AIST 2D 23 Jan 11:15:18 11:18:42 46° 261° (W) 11:22:06 435.315
O/OREOS (USA 219) 23 Jan 11:15:29 11:19:05 24° 258° (WSW) 11:22:42 437.305
JUGNU 23 Jan 11:20:42 11:24:30 18° 182° (S) 11:28:17 437.505
Max Valier Satellite 23 Jan 11:22:42 11:24:00 12° 292° (WNW) 11:25:19 145.860
QB50P2 23 Jan 11:25:54 11:30:03 59° 75° (ENE) 11:34:15 145.880/145.840
EO-88 23 Jan 11:34:32 11:36:06 12° 292° (WNW) 11:37:40 145.990 - 145.960
SRMSAT 23 Jan 11:47:30 11:49:57 13° 167° (SSE) 11:52:25 437.500
DUCHIFAT 1 23 Jan 11:50:54 11:55:05 78° 78° (ENE) 11:59:19 145.980
EO-79 23 Jan 11:55:45 11:59:55 66° 259° (WSW) 12:04:10 145.935-145.965
SPROUT 23 Jan 12:12:30 12:16:07 26° 96° (E) 12:19:44 437.525
AO-85 23 Jan 12:18:00 12:21:17 24° 308° (NW) 12:24:45 145.980
POLYITAN 1 23 Jan 12:32:23 12:35:50 24° 264° (W) 12:39:19 437.675
VELOX 1 23 Jan 12:37:07 12:40:48 26° 97° (E) 12:44:29 145.980
BUGSAT 1 23 Jan 12:41:19 12:45:19 61° 75° (ENE) 12:49:24 437.445
LO-87 23 Jan 12:44:26 12:46:24 14° 291° (WNW) 12:48:21 145.935 - 145.965
NANOSAT C BR1 23 Jan 12:45:44 12:48:48 19° 265° (W) 12:51:53 145.865
Oscar 19 23 Jan 12:46:03 12:50:56 43° 72° (ENE) 12:55:51 437.125/150
AO-91 23 Jan 12:48:57 12:52:05 37° 74° (ENE) 12:55:20 145.960
ESTCUBE 1 23 Jan 12:50:27 12:54:01 24° 291° (WNW) 12:57:34 437.505/2401.250
Gurwin Techsat 1B 23 Jan 12:54:29 12:59:23 39° 71° (ENE) 13:04:18 435.225
JUGNU 23 Jan 13:10:04 13:12:45 13° 192° (SSW) 13:15:25 437.505
RS-15 23 Jan 13:25:56 13:31:01 13° 7° (N) 13:36:02 29.354- 29.394
SRMSAT 23 Jan 13:34:28 13:38:22 18° 177° (S) 13:42:17 437.500
SPROUT 23 Jan 13:48:31 13:51:50 22° 290° (WNW) 13:55:08 437.525
UKube-1 23 Jan 14:02:24 14:05:56 24° 97° (E) 14:09:26 .
ITAMSAT 1 23 Jan 14:02:56 14:03:52 10° 61° (ENE) 14:04:47 435.822/435.867
SO-50 23 Jan 14:05:34 14:10:18 70° 60° (ENE) 14:15:03 436.795
VELOX 1 23 Jan 14:13:36 14:17:05 23° 291° (WNW) 14:20:35 145.980
AO-7 23 Jan 14:14:07 14:21:50 44° 64° (ENE) 14:29:35 .
DX 1 23 Jan 14:19:49 14:24:10 71° 102° (ESE) 14:28:30 434.975-435.025
Oscar 19 23 Jan 14:26:47 14:30:23 19° 266° (W) 14:34:00 437.125/150
Gurwin Techsat 1B 23 Jan 14:35:23 14:39:23 22° 265° (W) 14:43:25 435.225
50 SAT 23 Jan 14:42:31 14:45:30 44° 285° (WNW) 14:48:29 437.505
ITUPSAT 1 23 Jan 14:53:45 14:56:14 14° 93° (E) 14:58:43 437.325
MOZHAYETS 4 23 Jan 14:55:43 14:59:43 28° 96° (E) 15:03:40
NO-84 23 Jan 15:00:12 15:02:31 17° 126° (SE) 15:04:43 435.350 FM
SRMSAT 23 Jan 15:23:12 15:26:49 17° 187° (S) 15:30:27 437.500
BEESAT 23 Jan 15:29:46 15:34:11 36° 98° (E) 15:38:34 436.000
ITAMSAT 1 23 Jan 15:37:24 15:42:34 83° 258° (WSW) 15:47:46 435.822/435.867
UKube-1 23 Jan 15:38:21 15:41:48 24° 290° (WNW) 15:45:15 .
RS-15 23 Jan 15:39:07 15:49:13 31° 41° (NE) 15:58:48 29.354- 29.394
SO-50 23 Jan 15:49:02 15:50:09 11° 253° (WSW) 15:51:17 436.795
M-CUBED/EXP-1 PRIME 23 Jan 15:56:17 16:00:18 38° 69° (ENE) 16:04:05 437.505
AO-7 23 Jan 16:06:59 16:14:32 38° 261° (W) 16:22:10 .
DOVE 4 23 Jan 16:07:56 16:11:59 43° 75° (ENE) 16:15:56 437.250
ITUPSAT 1 23 Jan 16:29:37 16:34:17 50° 287° (WNW) 16:38:55 437.325
MOZHAYETS 4 23 Jan 16:33:03 16:36:41 23° 291° (WNW) 16:40:17
NO-84 23 Jan 16:36:45 16:39:32 27° 318° (NW) 16:42:10 435.350 FM
CUBESAT XI-V 23 Jan 16:43:10 16:47:47 76° 284° (WNW) 16:52:21 437.345
XW-2F 23 Jan 16:47:55 16:49:32 12° 68° (ENE) 16:51:10 145.980 - 146.000
HO-68 23 Jan 16:55:44 16:59:33 15° 58° (ENE) 17:03:22 435.675
XW-2D 23 Jan 16:59:00 17:01:48 20° 71° (ENE) 17:04:36 145.860 - 145.880
BEESAT 23 Jan 17:08:11 17:11:40 20° 293° (WNW) 17:15:07 436.000
XW-2B 23 Jan 17:16:04 17:19:27 30° 73° (ENE) 17:22:50 145.730 - 145.750
PCSat 23 Jan 17:20:46 17:22:44 12° 46° (NE) 17:24:42 145.827
M-CUBED/EXP-1 PRIME 23 Jan 17:32:05 17:34:40 15° 260° (W) 17:37:10 437.505
CUTE-I 23 Jan 17:32:12 17:37:13 46° 72° (ENE) 17:42:16 437.470
KKS-1 23 Jan 17:39:09 17:43:32 56° 101° (E) 17:47:55 437.445
XW-2C 23 Jan 17:46:06 17:49:55 83° 76° (ENE) 17:53:46 145.795 - 145.815
STARS 23 Jan 17:46:51 17:50:29 24° 97° (E) 17:54:05 437.465
LilacSat-2 23 Jan 17:47:50 17:51:42 85° 259° (W) 17:55:34 437.200
DOVE 4 23 Jan 17:48:17 17:49:50 12° 267° (W) 17:51:23 437.250
RS-15 23 Jan 17:51:15 18:02:48 77° 245° (WSW) 18:13:46 29.354- 29.394
CUTE 1.7 + AOD 2 23 Jan 17:52:32 17:55:57 24° 71° (ENE) 17:59:23 437.475
nSIGHT-1 23 Jan 18:02:45 18:03:54 12° 127° (SE) 18:05:03 .
KAITUO 1B 23 Jan 18:12:17 18:16:01 64° 259° (W) 18:19:44 145.475/437.950
BEESAT 3 23 Jan 18:16:42 18:20:35 69° 60° (ENE) 18:24:23 437.485
NUDT-PHONESAT 23 Jan 18:17:33 18:21:13 57° 260° (W) 18:24:54 437.300
XW-2F 23 Jan 18:19:44 18:23:15 36° 261° (W) 18:26:48 145.980 - 146.000
ISS 23 Jan 18:27:48 18:29:43 15° 128° (SE) 18:31:38 437.550
XW-2D 23 Jan 18:32:45 18:35:47 22° 264° (W) 18:38:50 145.860 - 145.880
UWE-3 23 Jan 18:35:02 18:38:43 26° 70° (ENE) 18:42:28 435.000/436.395/437.385
CUBEBUG 2 23 Jan 18:35:36 18:39:49 48° 74° (ENE) 18:44:12 437.445
HO-68 23 Jan 18:39:07 18:46:17 89° 254° (WSW) 18:53:29 435.675
AAUSAT CUBESAT 2 23 Jan 18:41:45 18:44:48 20° 70° (ENE) 18:47:51 437.432
XW-2B 23 Jan 18:51:32 18:53:38 14° 266° (W) 18:55:45 145.730 - 145.750
ZACube-1 23 Jan 18:52:05 18:55:23 21° 69° (ENE) 18:58:43 437.345
AO-73 23 Jan 18:56:54 19:00:10 20° 69° (ENE) 19:03:29 145.935
PCSat 23 Jan 19:01:28 19:06:55 85° 65° (ENE) 19:12:20 145.827
SEEDS 23 Jan 19:08:30 19:12:42 70° 259° (W) 19:16:55 437.485
AO-85 23 Jan 19:11:48 19:14:23 14° 47° (NE) 19:17:02 145.980
BEESAT 2 23 Jan 19:12:15 19:16:14 71° 60° (ENE) 19:20:09 435.950
CUTE-I 23 Jan 19:13:48 19:17:26 19° 266° (W) 19:21:04 437.470
STRAND 1 23 Jan 19:17:34 19:22:11 33° 97° (E) 19:26:46 437.568
KKS-1 23 Jan 19:17:54 19:19:33 12° 295° (WNW) 19:21:11 437.445
XW-2A 23 Jan 19:22:52 19:26:11 51° 76° (ENE) 19:29:31 145.665 - 145.685
STARS 23 Jan 19:23:04 19:26:41 25° 290° (WNW) 19:30:17 437.465
Oscar 11 23 Jan 19:26:19 19:29:54 26° 71° (ENE) 19:33:29 .
CUTE 1.7 + AOD 2 23 Jan 19:28:14 19:31:40 23° 264° (W) 19:35:06 437.475
nSIGHT-1 23 Jan 19:36:39 19:39:42 47° 321° (NW) 19:42:47 .
ISS 23 Jan 20:02:50 20:05:55 40° 322° (NW) 20:09:01 437.550
RS-15 23 Jan 20:08:22 20:13:01 13° 263° (W) 20:17:37 29.354- 29.394
UWE-3 23 Jan 20:11:27 20:15:02 24° 265° (W) 20:18:44 435.000/436.395/437.385
CUBEBUG 2 23 Jan 20:14:53 20:16:42 12° 269° (W) 20:18:34 437.445
AAUSAT CUBESAT 2 23 Jan 20:16:36 20:20:03 26° 264° (W) 20:23:31 437.432
DELFI C3 23 Jan 20:23:44 20:26:24 18° 70° (ENE) 20:29:03 145.870
Max Valier Satellite 23 Jan 20:24:54 20:25:46 11° 67° (ENE) 20:26:40 145.860
ZACube-1 23 Jan 20:27:27 20:31:23 31° 263° (W) 20:35:26 437.345
FO-29 23 Jan 20:31:13 20:36:24 72° 103° (ESE) 20:41:48 435.910
HO-68 23 Jan 20:31:58 20:34:46 12° 269° (W) 20:37:34 435.675
AO-73 23 Jan 20:32:10 20:36:07 32° 263° (W) 20:40:11 145.935
AO-85 23 Jan 20:50:15 20:55:20 83° 242° (WSW) 21:00:40 145.980
STRAND 1 23 Jan 20:57:00 21:01:09 25° 292° (WNW) 21:05:19 437.568
Oscar 11 23 Jan 21:02:29 21:05:56 23° 265° (W) 21:09:24 .
TIGRISAT 23 Jan 21:10:17 21:13:13 16° 93° (E) 21:16:06 435.000
UNISAT 6 23 Jan 21:25:36 21:29:35 27° 96° (E) 21:33:30 437.425
Max Valier Satellite 23 Jan 21:55:37 21:59:09 41° 261° (W) 22:02:42 145.860
DELFI C3 23 Jan 21:57:36 22:00:54 26° 263° (W) 22:04:13 145.870
EO-88 23 Jan 22:06:29 22:10:00 47° 261° (W) 22:13:33 145.990 - 145.960
ESTCUBE 1 23 Jan 22:10:36 22:13:31 17° 67° (ENE) 22:16:26 437.505/2401.250
PRISM 23 Jan 22:13:51 22:16:19 15° 95° (E) 22:18:46 437.425
YUBILEINY 23 Jan 22:15:06 22:23:01 39° 87° (E) 22:30:53 435.215
FO-29 23 Jan 22:19:27 22:20:54 11° 297° (WNW) 22:22:22 435.910
AIST 2D 23 Jan 22:44:14 22:46:09 14° 94° (E) 22:48:04 435.315
TIGRISAT 23 Jan 22:45:35 22:50:01 42° 287° (WNW) 22:54:23 435.000
UNISAT 6 23 Jan 23:02:16 23:06:08 26° 290° (WNW) 23:09:58 437.425
SPROUT 23 Jan 23:03:47 23:05:54 14° 67° (ENE) 23:08:01 437.525
NO-84 23 Jan 23:11:25 23:13:48 23° 42° (NE) 23:16:15 435.350 FM
LO-87 23 Jan 23:15:04 23:18:33 57° 259° (W) 23:22:07 145.935 - 145.965
QB50P2 23 Jan 23:15:48 23:17:37 12° 93° (E) 23:19:25 145.880/145.840
VELOX 1 23 Jan 23:31:59 23:34:38 16° 67° (ENE) 23:37:18 145.980
DUCHIFAT 1 23 Jan 23:39:15 23:41:49 16° 94° (E) 23:44:22 145.980
EO-79 23 Jan 23:43:58 23:47:30 24° 96° (E) 23:50:59 145.935-145.965
O/OREOS (USA 219) 23 Jan 23:44:25 23:48:49 55° 106° (ESE) 23:53:13 437.305
ESTCUBE 1 23 Jan 23:45:45 23:49:58 38° 262° (W) 23:54:11 437.505/2401.250
PRISM 23 Jan 23:47:57 23:51:37 33° 288° (WNW) 23:55:17 437.425
YUBILEINY 24 Jan 00:11:30 00:19:38 41° 284° (WNW) 00:27:47 435.215
AIST 2D 24 Jan 00:16:27 00:19:17 24° 288° (WNW) 00:22:05 435.315
POLYITAN 1 24 Jan 00:19:18 00:23:35 67° 101° (E) 00:27:48 437.675
BUGSAT 1 24 Jan 00:28:18 00:29:46 12° 92° (E) 00:31:14 437.445
NANOSAT C BR1 24 Jan 00:31:38 00:35:55 83° 104° (ESE) 00:40:10 145.865
SPROUT 24 Jan 00:37:19 00:41:21 43° 261° (W) 00:45:25 437.525
AO-91 24 Jan 00:41:28 00:44:08 14° 94° (E) 00:46:52 145.960
NO-84 24 Jan 00:48:51 00:50:47 16° 234° (SW) 00:52:48 435.350 FM
QB50P2 24 Jan 00:49:29 00:53:35 45° 286° (WNW) 00:57:38 145.880/145.840
UKube-1 24 Jan 00:54:43 00:57:00 14° 66° (ENE) 00:59:18 .
Oscar 19 24 Jan 01:01:46 01:05:27 20° 94° (E) 01:09:07 437.125/150
50 SAT 24 Jan 01:03:51 01:06:10 20° 72° (ENE) 01:08:29 437.505
VELOX 1 24 Jan 01:06:39 01:10:44 38° 261° (W) 01:14:49 145.980
DX 1 24 Jan 01:11:58 01:15:58 39° 72° (ENE) 01:20:00 434.975-435.025
DUCHIFAT 1 24 Jan 01:13:39 01:17:32 35° 288° (WNW) 01:21:24 145.980
Gurwin Techsat 1B 24 Jan 01:14:41 01:18:32 20° 94° (E) 01:22:23 435.225
EO-79 24 Jan 01:19:43 01:23:06 23° 290° (WNW) 01:26:27 145.935-145.965
FALCONSAT 3 24 Jan 01:25:41 01:27:59 16° 150° (SSE) 01:30:18 435.103
O/OREOS (USA 219) 24 Jan 01:26:35 01:28:33 13° 302° (WNW) 01:30:31 437.305
MOZHAYETS 4 24 Jan 01:54:47 01:58:06 20° 68° (ENE) 02:01:25
ITUPSAT 1 24 Jan 01:58:18 02:00:08 12° 64° (ENE) 02:01:59 437.325
BUGSAT 1 24 Jan 02:01:14 02:05:19 47° 286° (WNW) 02:09:23 437.445
nSIGHT-1 24 Jan 02:05:47 02:08:45 36° 37° (NE) 02:11:43 .
AO-91 24 Jan 02:16:02 02:20:38 53° 285° (WNW) 02:25:38 145.960
AO-7 24 Jan 02:21:45 02:26:04 15° 92° (E) 02:30:22 .
UKube-1 24 Jan 02:28:33 02:32:37 42° 260° (W) 02:36:42 .
BEESAT 24 Jan 02:33:00 02:37:05 29° 70° (ENE) 02:41:12 436.000
ISS 24 Jan 02:33:05 02:36:15 45° 39° (NE) 02:39:25 437.550
50 SAT 24 Jan 02:36:20 02:37:46 13° 265° (W) 02:39:14 437.505
Oscar 19 24 Jan 02:40:04 02:44:53 41° 289° (WNW) 02:49:40 437.125/150
DX 1 24 Jan 02:49:50 02:52:15 15° 266° (W) 02:54:42 434.975-435.025
Gurwin Techsat 1B 24 Jan 02:53:37 02:58:36 42° 289° (WNW) 03:03:34 435.225
FALCONSAT 3 24 Jan 03:03:03 03:06:39 56° 163° (SSE) 03:10:16 435.103
MOZHAYETS 4 24 Jan 03:30:45 03:34:57 35° 262° (W) 03:39:12
ITUPSAT 1 24 Jan 03:32:38 03:37:21 63° 258° (WSW) 03:42:08 437.325
CUBESAT XI-V 24 Jan 03:42:35 03:47:15 71° 76° (ENE) 03:51:55 437.345
nSIGHT-1 24 Jan 03:42:39 03:44:40 16° 232° (SW) 03:46:42 .
ITAMSAT 1 24 Jan 03:53:39 03:58:38 45° 100° (E) 04:03:36 435.822/435.867
DOVE 4 24 Jan 04:10:03 04:12:53 16° 95° (E) 04:15:47 437.250
ISS 24 Jan 04:10:48 04:12:25 13° 233° (SW) 04:14:02 437.550
BEESAT 24 Jan 04:10:57 04:14:47 24° 264° (W) 04:18:39 436.000
AO-7 24 Jan 04:11:16 04:19:41 89° 106° (ESE) 04:28:02 .
SO-50 24 Jan 04:16:42 04:20:56 47° 115° (ESE) 04:25:15 436.795
